Torna al catalogo

STARLINK-32754

AttivoComunicazioniVLEO
NORAD 62527·PAYLOAD·🇺🇸 United States

Lanciato Jan 8, 2025 da Cape Canaveral Space Force Station

Loading…

Prossimi Passaggi (prossime 24 ore)

TLE

AggiornatoSource: CelesTrak SupGP

Epoca: Sep 15, 2026, 01:59 UTC

1 62527C 25004S   26258.08312500 -.00040440  00000+0 -14647-2 0  2580
2 62527  42.9995 230.3046 0001109 268.3488  88.7932 15.27599756    14

Traccia STARLINK-32754 in tempo reale con AllMySat

Download on the App Store